Time,TemperatureF,DewpointF,PressureIn,WindDirection,WindDirectionDegrees,WindSpeedMPH,WindSpeedGustMPH,Humidity,HourlyPrecipIn,Conditions,Clouds,dailyrainin,SoftwareType,DateUTC
2013-11-07 00:00:00,50.5,47.4,29.89,SSW,203,1.0,3.0,89,0.00,,,0.00,Wunderground PWS Mod,2013-11-07 05:00:00,
2013-11-07 00:05:00,50.2,47.4,29.89,SW,222,1.0,3.0,90,0.00,,,0.00,Wunderground PWS Mod,2013-11-07 05:05:00,
2013-11-07 00:10:00,50.1,47.3,29.89,SW,222,0.0,3.0,90,0.00,,,0.00,Wunderground PWS Mod,2013-11-07 05:10:00,
2013-11-07 00:20:00,50.4,47.3,29.89,SSW,203,1.0,3.0,89,0.00,,,0.00,Wunderground PWS Mod,2013-11-07 05:20:00,
2013-11-07 00:25:00,50.2,47.7,29.88,SW,217,1.0,3.0,91,0.00,,,0.00,Wunderground PWS Mod,2013-11-07 05:25:00,
2013-11-07 00:30:00,50.4,47.6,29.89,SW,225,1.0,6.0,90,0.00,,,0.00,Wunderground PWS Mod,2013-11-07 05:30:00,
2013-11-07 00:35:00,50.2,47.7,29.87,SW,217,0.0,4.0,91,0.00,,,0.00,Wunderground PWS Mod,2013-11-07 05:35:00,
2013-11-07 00:45:00,50.4,47.6,29.89,SW,225,0.0,3.0,90,0.00,,,0.00,Wunderground PWS Mod,2013-11-07 05:45:00,
2013-11-07 00:50:00,50.2,47.7,29.87,SW,232,0.0,3.0,91,0.00,,,0.00,Wunderground PWS Mod,2013-11-07 05:50:00,
2013-11-07 00:55:00,50.2,47.4,29.89,SW,225,1.0,3.0,90,0.00,,,0.00,Wunderground PWS Mod,2013-11-07 05:55:00,
2013-11-07 01:05:00,50.2,47.4,29.89,SW,225,0.0,3.0,90,0.00,,,0.00,Wunderground PWS Mod,2013-11-07 06:05:00,
2013-11-07 01:15:00,50.1,47.6,29.88,SW,225,1.0,3.0,91,0.00,,,0.00,Wunderground PWS Mod,2013-11-07 06:15:00,
2013-11-07 01:20:00,50.7,48.2,29.84,SSW,209,1.0,5.0,91,0.00,,,0.00,Wunderground PWS Mod,2013-11-07 06:20:00,
2013-11-07 01:25:00,50.7,48.5,29.84,SE,144,1.0,5.0,92,0.00,,,0.00,Wunderground PWS Mod,2013-11-07 06:25:00,
2013-11-07 01:30:00,50.2,47.7,29.87,SW,225,0.0,3.0,91,0.00,,,0.00,Wunderground PWS Mod,2013-11-07 06:30:00,
2013-11-07 01:35:00,50.8,48.6,29.84,SSE,164,0.0,5.0,92,0.00,,,0.00,Wunderground PWS Mod,2013-11-07 06:35:00,
2013-11-07 01:40:00,50.8,48.6,29.83,SSE,164,0.0,5.0,92,0.00,,,0.00,Wunderground PWS Mod,2013-11-07 06:40:00,
2013-11-07 01:45:00,50.2,47.7,29.86,SW,225,0.0,3.0,91,0.00,,,0.00,Wunderground PWS Mod,2013-11-07 06:45:00,
2013-11-07 01:50:00,50.8,48.6,29.83,SSE,167,0.0,2.0,92,0.00,,,0.00,Wunderground PWS Mod,2013-11-07 06:50:00,
2013-11-07 01:55:00,50.4,47.9,29.86,SSW,203,0.0,2.0,91,0.00,,,0.00,Wunderground PWS Mod,2013-11-07 06:55:00,
2013-11-07 02:00:00,50.5,48.0,29.85,SSW,203,1.0,5.0,91,0.00,,,0.00,Wunderground PWS Mod,2013-11-07 07:00:00,
2013-11-07 02:10:00,51.0,48.8,29.82,South,172,0.0,3.0,92,0.00,,,0.00,Wunderground PWS Mod,2013-11-07 07:10:00,
2013-11-07 02:15:00,50.7,48.2,29.84,SSW,203,0.0,2.0,91,0.00,,,0.00,Wunderground PWS Mod,2013-11-07 07:15:00,
2013-11-07 02:20:00,51.0,48.8,29.82,South,174,0.0,2.0,92,0.00,,,0.00,Wunderground PWS Mod,2013-11-07 07:20:00,
2013-11-07 02:25:00,50.8,48.6,29.84,SSE,158,1.0,3.0,92,0.00,,,0.00,Wunderground PWS Mod,2013-11-07 07:25:00,
2013-11-07 02:30:00,50.8,48.6,29.83,SSE,158,0.0,3.0,92,0.00,,,0.00,Wunderground PWS Mod,2013-11-07 07:30:00,
2013-11-07 02:35:00,51.4,49.4,29.80,South,174,0.0,3.0,93,0.00,,,0.00,Wunderground PWS Mod,2013-11-07 07:35:00,
2013-11-07 02:40:00,51.6,49.6,29.80,South,179,0.0,3.0,93,0.00,,,0.00,Wunderground PWS Mod,2013-11-07 07:40:00,
2013-11-07 02:45:00,50.8,48.6,29.82,SSE,158,1.0,5.0,92,0.00,,,0.00,Wunderground PWS Mod,2013-11-07 07:45:00,
2013-11-07 02:55:00,51.0,48.8,29.82,South,180,0.0,4.0,92,0.00,,,0.00,Wunderground PWS Mod,2013-11-07 07:55:00,
2013-11-07 03:00:00,51.0,48.8,29.82,South,180,0.0,3.0,92,0.00,,,0.00,Wunderground PWS Mod,2013-11-07 08:00:00,
2013-11-07 03:10:00,53.3,51.0,29.78,SSE,165,0.0,6.0,92,0.00,,,0.00,Wunderground PWS Mod,2013-11-07 08:10:00,
2013-11-07 03:15:00,51.0,48.8,29.81,South,180,0.0,1.0,92,0.00,,,0.00,Wunderground PWS Mod,2013-11-07 08:15:00,
2013-11-07 03:20:00,53.9,51.6,29.78,SSW,198,1.0,3.0,92,0.00,,,0.00,Wunderground PWS Mod,2013-11-07 08:20:00,
2013-11-07 03:25:00,54.2,51.9,29.78,SSW,213,1.0,3.0,92,0.00,,,0.00,Wunderground PWS Mod,2013-11-07 08:25:00,
2013-11-07 03:30:00,51.4,49.4,29.80,South,180,0.0,2.0,93,0.00,,,0.00,Wunderground PWS Mod,2013-11-07 08:30:00,
2013-11-07 03:35:00,54.7,52.4,29.77,SSW,212,1.0,5.0,92,0.00,,,0.00,Wunderground PWS Mod,2013-11-07 08:35:00,
2013-11-07 03:40:00,54.8,52.5,29.77,SSW,196,1.0,5.0,92,0.00,,,0.00,Wunderground PWS Mod,2013-11-07 08:40:00,
2013-11-07 03:45:00,52.2,50.2,29.79,SSW,203,0.0,3.0,93,0.00,,,0.00,Wunderground PWS Mod,2013-11-07 08:45:00,
2013-11-07 03:50:00,55.1,52.5,29.77,SSW,202,1.0,6.0,91,0.00,,,0.00,Wunderground PWS Mod,2013-11-07 08:50:00,
2013-11-07 03:55:00,52.8,50.5,29.79,SW,225,0.0,4.0,92,0.00,,,0.00,Wunderground PWS Mod,2013-11-07 08:55:00,
2013-11-07 04:00:00,53.1,50.8,29.78,SSE,158,0.0,3.0,92,0.00,,,0.00,Wunderground PWS Mod,2013-11-07 09:00:00,
2013-11-07 04:05:00,55.6,53.0,29.76,WSW,250,1.0,3.0,91,0.00,,,0.00,Wunderground PWS Mod,2013-11-07 09:05:00,
2013-11-07 04:10:00,55.7,53.1,29.76,SW,227,1.0,3.0,91,0.00,,,0.00,Wunderground PWS Mod,2013-11-07 09:10:00,
2013-11-07 04:15:00,53.9,51.6,29.78,SSW,203,1.0,5.0,92,0.00,,,0.00,Wunderground PWS Mod,2013-11-07 09:15:00,
2013-11-07 04:20:00,56.0,53.1,29.76,SW,215,1.0,5.0,90,0.00,,,0.00,Wunderground PWS Mod,2013-11-07 09:20:00,
2013-11-07 04:25:00,56.2,53.3,29.76,SW,215,1.0,5.0,90,0.00,,,0.00,Wunderground PWS Mod,2013-11-07 09:25:00,
2013-11-07 04:30:00,54.7,52.1,29.77,SSW,203,0.0,3.0,91,0.00,,,0.00,Wunderground PWS Mod,2013-11-07 09:30:00,
2013-11-07 04:40:00,56.3,53.7,29.75,SW,219,1.0,2.0,91,0.00,,,0.00,Wunderground PWS Mod,2013-11-07 09:40:00,
2013-11-07 04:45:00,55.3,52.7,29.77,SSW,203,0.0,5.0,91,0.00,,,0.00,Wunderground PWS Mod,2013-11-07 09:45:00,
2013-11-07 04:50:00,56.5,53.9,29.75,SSW,203,1.0,6.0,91,0.00,,,0.00,Wunderground PWS Mod,2013-11-07 09:50:00,
2013-11-07 04:55:00,56.5,53.9,29.74,SW,216,0.0,6.0,91,0.00,,,0.00,Wunderground PWS Mod,2013-11-07 09:55:00,
2013-11-07 05:00:00,55.6,53.0,29.76,WSW,248,1.0,3.0,91,0.00,,,0.00,Wunderground PWS Mod,2013-11-07 10:00:00,
2013-11-07 05:05:00,56.3,54.0,29.72,SSE,162,1.0,6.0,92,0.00,,,0.00,Wunderground PWS Mod,2013-11-07 10:05:00,
2013-11-07 05:10:00,55.9,53.0,29.76,SW,225,1.0,7.0,90,0.00,,,0.00,Wunderground PWS Mod,2013-11-07 10:10:00,
2013-11-07 05:15:00,56.0,53.1,29.76,SW,225,1.0,4.0,90,0.00,,,0.00,Wunderground PWS Mod,2013-11-07 10:15:00,
2013-11-07 05:20:00,56.6,54.6,29.71,SSE,151,0.0,4.0,93,0.00,,,0.00,Wunderground PWS Mod,2013-11-07 10:20:00,
2013-11-07 05:25:00,56.6,54.6,29.71,SW,223,0.0,4.0,93,0.00,,,0.00,Wunderground PWS Mod,2013-11-07 10:25:00,
2013-11-07 05:30:00,56.3,53.7,29.75,SW,225,1.0,5.0,91,0.00,,,0.00,Wunderground PWS Mod,2013-11-07 10:30:00,
2013-11-07 05:35:00,57.0,55.0,29.71,SW,229,1.0,6.0,93,0.00,,,0.00,Wunderground PWS Mod,2013-11-07 10:35:00,
2013-11-07 05:40:00,57.2,54.9,29.69,SSW,202,2.0,3.0,92,0.00,,,0.00,Wunderground PWS Mod,2013-11-07 10:40:00,
2013-11-07 05:45:00,56.5,53.9,29.74,SSW,203,0.0,6.0,91,0.00,,,0.00,Wunderground PWS Mod,2013-11-07 10:45:00,
2013-11-07 05:55:00,57.6,55.0,29.68,SSW,209,1.0,6.0,91,0.00,,,0.00,Wunderground PWS Mod,2013-11-07 10:55:00,
2013-11-07 06:00:00,56.3,54.0,29.72,SSE,158,0.0,3.0,92,0.00,,,0.00,Wunderground PWS Mod,2013-11-07 11:00:00,
2013-11-07 06:20:00,56.6,54.6,29.71,SSE,158,0.0,5.0,93,0.00,,,0.00,Wunderground PWS Mod,2013-11-07 11:20:00,
2013-11-07 06:25:00,58.3,55.7,29.67,SW,220,1.0,5.0,91,0.00,,,0.00,Wunderground PWS Mod,2013-11-07 11:25:00,
2013-11-07 06:30:00,57.0,55.0,29.69,SW,225,2.0,7.0,93,0.00,,,0.00,Wunderground PWS Mod,2013-11-07 11:30:00,
2013-11-07 06:35:00,58.4,55.8,29.66,SW,216,1.0,6.0,91,0.00,,,0.00,Wunderground PWS Mod,2013-11-07 11:35:00,
2013-11-07 06:40:00,57.3,55.0,29.69,SSW,203,1.0,5.0,92,0.00,,,0.00,Wunderground PWS Mod,2013-11-07 11:40:00,
2013-11-07 06:45:00,57.5,55.2,29.68,SSE,158,1.0,5.0,92,0.00,,,0.00,Wunderground PWS Mod,2013-11-07 11:45:00,
2013-11-07 06:50:00,58.4,55.8,29.66,SSW,199,1.0,3.0,91,0.00,,,0.00,Wunderground PWS Mod,2013-11-07 11:50:00,
2013-11-07 06:55:00,58.6,56.0,29.67,SSW,202,1.0,3.0,91,0.00,,,0.00,Wunderground PWS Mod,2013-11-07 11:55:00,
2013-11-07 07:00:00,58.0,55.4,29.68,SSW,203,0.0,4.0,91,0.00,,,0.00,Wunderground PWS Mod,2013-11-07 12:00:00,
2013-11-07 07:05:00,58.6,55.7,29.66,SSW,209,0.0,3.0,90,0.00,,,0.00,Wunderground PWS Mod,2013-11-07 12:05:00,
2013-11-07 07:10:00,58.7,55.8,29.66,SSW,213,0.0,3.0,90,0.00,,,0.00,Wunderground PWS Mod,2013-11-07 12:10:00,
2013-11-07 07:20:00,58.3,55.7,29.67,SSE,158,1.0,7.0,91,0.00,,,0.00,Wunderground PWS Mod,2013-11-07 12:20:00,
2013-11-07 07:25:00,59.0,55.8,29.66,SW,217,1.0,3.0,89,0.00,,,0.00,Wunderground PWS Mod,2013-11-07 12:25:00,
2013-11-07 07:30:00,58.4,55.8,29.67,SW,225,1.0,5.0,91,0.00,,,0.00,Wunderground PWS Mod,2013-11-07 12:30:00,
2013-11-07 07:35:00,59.5,55.9,29.66,SSW,210,1.0,6.0,88,0.00,,,0.00,Wunderground PWS Mod,2013-11-07 12:35:00,
2013-11-07 07:40:00,59.6,55.7,29.66,SSW,210,1.0,6.0,87,0.00,,,0.00,Wunderground PWS Mod,2013-11-07 12:40:00,
2013-11-07 07:45:00,58.4,55.8,29.67,SSW,203,1.0,5.0,91,0.00,,,0.00,Wunderground PWS Mod,2013-11-07 12:45:00,
2013-11-07 07:46:00,59.9,55.7,29.66,SSW,213,1.0,5.0,86,0.00,,,0.00,Wunderground PWS Mod,2013-11-07 12:46:00,
2013-11-07 07:50:00,59.9,55.7,29.66,SW,223,1.0,5.0,86,0.00,,,0.00,Wunderground PWS Mod,2013-11-07 12:50:00,
2013-11-07 07:55:00,58.6,56.0,29.67,SSW,203,1.0,4.0,91,0.00,,,0.00,Wunderground PWS Mod,2013-11-07 12:55:00,
2013-11-07 08:05:00,60.5,55.3,29.65,SSW,208,1.0,6.0,83,0.00,,,0.00,Wunderground PWS Mod,2013-11-07 13:05:00,
2013-11-07 08:10:00,58.7,55.8,29.66,SW,225,1.0,5.0,90,0.00,,,0.00,Wunderground PWS Mod,2013-11-07 13:10:00,
2013-11-07 08:15:00,58.9,56.0,29.66,SW,225,1.0,4.0,90,0.00,,,0.00,Wunderground PWS Mod,2013-11-07 13:15:00,
2013-11-07 08:25:00,61.3,55.1,29.64,SSW,212,1.0,5.0,80,0.00,,,0.00,Wunderground PWS Mod,2013-11-07 13:25:00,
2013-11-07 08:30:00,59.5,55.9,29.67,SSW,203,1.0,4.0,88,0.00,,,0.00,Wunderground PWS Mod,2013-11-07 13:30:00,
2013-11-07 08:35:00,61.8,54.9,29.64,SSW,192,2.0,7.0,78,0.00,,,0.00,Wunderground PWS Mod,2013-11-07 13:35:00,
2013-11-07 08:40:00,62.3,55.4,29.64,SW,224,2.0,7.0,78,0.00,,,0.00,Wunderground PWS Mod,2013-11-07 13:40:00,
2013-11-07 08:45:00,60.1,55.9,29.65,SW,225,1.0,6.0,86,0.00,,,0.00,Wunderground PWS Mod,2013-11-07 13:45:00,
2013-11-07 08:55:00,62.7,55.0,29.63,SSW,206,2.0,6.0,76,0.00,,,0.00,Wunderground PWS Mod,2013-11-07 13:55:00,
2013-11-07 09:00:00,60.5,55.3,29.65,SSW,203,1.0,6.0,83,0.00,,,0.00,Wunderground PWS Mod,2013-11-07 14:00:00,
2013-11-07 09:05:00,62.9,54.9,29.62,SW,217,2.0,8.0,75,0.00,,,0.00,Wunderground PWS Mod,2013-11-07 14:05:00,
2013-11-07 09:10:00,63.1,55.0,29.62,SW,220,2.0,8.0,75,0.00,,,0.00,Wunderground PWS Mod,2013-11-07 14:10:00,
2013-11-07 09:20:00,61.2,55.0,29.64,SSW,203,2.0,6.0,80,0.00,,,0.00,Wunderground PWS Mod,2013-11-07 14:20:00,
2013-11-07 09:30:00,62.0,55.1,29.64,SW,225,3.0,8.0,78,0.00,,,0.00,Wunderground PWS Mod,2013-11-07 14:30:00,
2013-11-07 09:35:00,63.1,54.7,29.62,SW,216,1.0,12.0,74,0.00,,,0.00,Wunderground PWS Mod,2013-11-07 14:35:00,
2013-11-07 09:40:00,63.1,54.7,29.62,SSW,213,1.0,12.0,74,0.00,,,0.00,Wunderground PWS Mod,2013-11-07 14:40:00,
2013-11-07 09:45:00,62.7,55.0,29.63,SW,225,1.0,7.0,76,0.00,,,0.00,Wunderground PWS Mod,2013-11-07 14:45:00,
2013-11-07 09:50:00,62.9,54.1,29.62,SSW,203,2.0,5.0,73,0.00,,,0.00,Wunderground PWS Mod,2013-11-07 14:50:00,
2013-11-07 09:55:00,62.9,54.1,29.62,SSW,210,2.0,5.0,73,0.00,,,0.00,Wunderground PWS Mod,2013-11-07 14:55:00,
2013-11-07 10:00:00,62.9,54.9,29.62,SW,225,3.0,10.0,75,0.00,,,0.00,Wunderground PWS Mod,2013-11-07 15:00:00,
2013-11-07 10:10:00,62.7,53.9,29.62,SSW,212,3.0,7.0,73,0.00,,,0.00,Wunderground PWS Mod,2013-11-07 15:10:00,
2013-11-07 10:15:00,63.1,54.7,29.62,SSW,203,1.0,7.0,74,0.00,,,0.00,Wunderground PWS Mod,2013-11-07 15:15:00,
2013-11-07 10:25:00,62.9,54.1,29.60,SSW,210,1.0,10.0,73,0.00,,,0.00,Wunderground PWS Mod,2013-11-07 15:25:00,
2013-11-07 10:30:00,63.1,54.7,29.62,SW,225,2.0,8.0,74,0.00,,,0.00,Wunderground PWS Mod,2013-11-07 15:30:00,
2013-11-07 10:40:00,63.1,54.3,29.62,SSW,203,3.0,10.0,73,0.00,,,0.00,Wunderground PWS Mod,2013-11-07 15:40:00,
2013-11-07 10:45:00,62.9,54.1,29.62,SW,225,2.0,7.0,73,0.00,,,0.00,Wunderground PWS Mod,2013-11-07 15:45:00,
2013-11-07 10:55:00,62.4,54.0,29.60,SW,215,2.0,7.0,74,0.00,,,0.00,Wunderground PWS Mod,2013-11-07 15:55:00,
2013-11-07 11:00:00,62.7,54.3,29.62,SSW,203,2.0,8.0,74,0.00,,,0.00,Wunderground PWS Mod,2013-11-07 16:00:00,
2013-11-07 11:10:00,61.8,54.5,29.60,WSW,254,3.0,8.0,77,0.00,,,0.00,Wunderground PWS Mod,2013-11-07 16:10:00,
2013-11-07 11:20:00,62.7,53.9,29.60,West,270,1.0,7.0,73,0.00,,,0.00,Wunderground PWS Mod,2013-11-07 16:20:00,
2013-11-07 11:25:00,60.5,55.0,29.59,WSW,240,2.0,11.0,82,0.00,,,0.00,Wunderground PWS Mod,2013-11-07 16:25:00,
2013-11-07 11:30:00,63.2,54.0,29.60,SSW,203,2.0,10.0,72,0.00,,,0.00,Wunderground PWS Mod,2013-11-07 16:30:00,
2013-11-07 11:35:00,60.2,54.7,29.58,SW,236,1.0,5.0,82,0.00,,,0.00,Wunderground PWS Mod,2013-11-07 16:35:00,
2013-11-07 11:40:00,60.1,54.6,29.58,SW,236,2.0,5.0,82,0.00,,,0.00,Wunderground PWS Mod,2013-11-07 16:40:00,
2013-11-07 11:45:00,62.6,53.8,29.60,West,270,2.0,16.0,73,0.00,,,0.00,Wunderground PWS Mod,2013-11-07 16:45:00,
2013-11-07 11:50:00,59.8,54.6,29.58,WSW,250,1.0,11.0,83,0.00,,,0.00,Wunderground PWS Mod,2013-11-07 16:50:00,
2013-11-07 11:55:00,62.3,54.3,29.60,SSW,203,2.0,10.0,75,0.00,,,0.00,Wunderground PWS Mod,2013-11-07 16:55:00,
2013-11-07 12:00:00,62.0,54.0,29.60,WSW,248,3.0,8.0,75,0.00,,,0.00,Wunderground PWS Mod,2013-11-07 17:00:00,
2013-11-07 12:05:00,58.9,54.4,29.56,SW,224,3.0,12.0,85,0.00,,,0.00,Wunderground PWS Mod,2013-11-07 17:05:00,
2013-11-07 12:10:00,61.3,55.1,29.60,SW,225,2.0,8.0,80,0.00,,,0.00,Wunderground PWS Mod,2013-11-07 17:10:00,
2013-11-07 12:20:00,58.0,53.8,29.56,SW,234,1.0,3.0,86,0.00,,,0.01,Wunderground PWS Mod,2013-11-07 17:20:00,
2013-11-07 12:25:00,57.3,53.1,29.56,SW,220,2.0,3.0,86,0.05,,,0.02,Wunderground PWS Mod,2013-11-07 17:25:00,
2013-11-07 12:30:00,60.2,54.7,29.58,WSW,248,2.0,12.0,82,0.00,,,0.02,Wunderground PWS Mod,2013-11-07 17:30:00,
2013-11-07 12:35:00,57.0,53.5,29.56,SW,236,0.0,7.0,88,0.05,,,0.02,Wunderground PWS Mod,2013-11-07 17:35:00,
2013-11-07 12:40:00,56.9,53.7,29.54,SW,236,0.0,7.0,89,0.05,,,0.03,Wunderground PWS Mod,2013-11-07 17:40:00,
2013-11-07 12:45:00,59.8,54.6,29.57,WSW,248,2.0,10.0,83,0.00,,,0.03,Wunderground PWS Mod,2013-11-07 17:45:00,
2013-11-07 12:50:00,56.5,53.9,29.56,WSW,243,0.0,0.0,91,0.04,,,0.03,Wunderground PWS Mod,2013-11-07 17:50:00,
2013-11-07 12:55:00,56.5,53.9,29.56,WSW,243,0.0,0.0,91,0.04,,,0.04,Wunderground PWS Mod,2013-11-07 17:55:00,
2013-11-07 13:00:00,58.9,54.4,29.56,SW,225,1.0,8.0,85,0.00,,,0.04,Wunderground PWS Mod,2013-11-07 18:00:00,
2013-11-07 13:05:00,56.3,54.0,29.55,WSW,246,0.0,2.0,92,0.04,,,0.04,Wunderground PWS Mod,2013-11-07 18:05:00,
2013-11-07 13:10:00,56.2,53.9,29.55,WSW,246,0.0,2.0,92,0.00,,,0.04,Wunderground PWS Mod,2013-11-07 18:10:00,
2013-11-07 13:16:00,57.8,53.6,29.56,SW,225,1.0,8.0,86,0.01,,,0.04,Wunderground PWS Mod,2013-11-07 18:16:00,
2013-11-07 13:20:00,55.3,52.7,29.55,WSW,251,2.0,6.0,91,0.09,,,0.06,Wunderground PWS Mod,2013-11-07 18:20:00,
2013-11-07 13:25:00,57.2,53.7,29.56,SW,225,0.0,4.0,88,0.02,,,0.04,Wunderground PWS Mod,2013-11-07 18:25:00,
2013-11-07 13:35:00,56.9,53.7,29.54,SW,225,0.0,2.0,89,0.02,,,0.06,Wunderground PWS Mod,2013-11-07 18:35:00,
2013-11-07 13:40:00,54.2,51.6,29.54,West,275,0.0,7.0,91,0.08,,,0.08,Wunderground PWS Mod,2013-11-07 18:40:00,
2013-11-07 13:45:00,56.5,53.9,29.56,WSW,248,0.0,2.0,91,0.03,,,0.08,Wunderground PWS Mod,2013-11-07 18:45:00,
2013-11-07 13:50:00,53.3,50.4,29.54,NW,305,1.0,3.0,90,0.06,,,0.09,Wunderground PWS Mod,2013-11-07 18:50:00,
2013-11-07 13:55:00,53.2,50.6,29.54,NW,305,1.0,3.0,91,0.06,,,0.09,Wunderground PWS Mod,2013-11-07 18:55:00,
2013-11-07 14:00:00,56.3,54.0,29.55,WSW,248,0.0,3.0,92,0.04,,,0.09,Wunderground PWS Mod,2013-11-07 19:00:00,
2013-11-07 14:10:00,55.9,53.6,29.55,WSW,248,2.0,8.0,92,0.05,,,0.09,Wunderground PWS Mod,2013-11-07 19:10:00,
2013-11-07 14:15:00,55.1,52.2,29.55,WSW,248,3.0,11.0,90,0.05,,,0.09,Wunderground PWS Mod,2013-11-07 19:15:00,
2013-11-07 14:20:00,52.5,49.9,29.56,WNW,292,2.0,6.0,91,0.00,,,0.09,Wunderground PWS Mod,2013-11-07 19:20:00,
2013-11-07 14:25:00,52.2,48.8,29.56,NW,318,4.0,13.0,88,0.00,,,0.09,Wunderground PWS Mod,2013-11-07 19:25:00,
2013-11-07 14:30:00,54.5,51.9,29.54,WSW,248,0.0,1.0,91,0.05,,,0.09,Wunderground PWS Mod,2013-11-07 19:30:00,
2013-11-07 14:40:00,51.6,47.2,29.57,West,264,4.0,16.0,85,0.00,,,0.09,Wunderground PWS Mod,2013-11-07 19:40:00,
2013-11-07 14:46:00,53.2,50.6,29.54,NW,315,1.0,7.0,91,0.06,,,0.09,Wunderground PWS Mod,2013-11-07 19:46:00,
2013-11-07 14:50:00,51.3,47.3,29.57,WSW,247,3.0,10.0,86,0.00,,,0.09,Wunderground PWS Mod,2013-11-07 19:50:00,
2013-11-07 14:55:00,51.1,46.7,29.57,WSW,243,3.0,10.0,85,0.00,,,0.09,Wunderground PWS Mod,2013-11-07 19:55:00,
2013-11-07 15:00:00,52.9,50.3,29.56,WNW,293,1.0,10.0,91,0.05,,,0.09,Wunderground PWS Mod,2013-11-07 20:00:00,
2013-11-07 15:05:00,50.8,45.8,29.58,WSW,253,5.0,12.0,83,0.00,,,0.09,Wunderground PWS Mod,2013-11-07 20:05:00,
2013-11-07 15:10:00,50.8,45.5,29.58,WNW,295,5.0,12.0,82,0.00,,,0.09,Wunderground PWS Mod,2013-11-07 20:10:00,
2013-11-07 15:20:00,52.5,49.9,29.56,WSW,248,2.0,13.0,91,0.03,,,0.09,Wunderground PWS Mod,2013-11-07 20:20:00,
2013-11-07 15:25:00,50.1,44.2,29.58,SW,224,5.0,11.0,80,0.00,,,0.09,Wunderground PWS Mod,2013-11-07 20:25:00,
2013-11-07 15:31:00,51.6,47.2,29.57,WSW,248,4.0,12.0,85,0.02,,,0.09,Wunderground PWS Mod,2013-11-07 20:31:00,
2013-11-07 15:40:00,51.4,47.0,29.57,WSW,248,2.0,8.0,85,0.01,,,0.09,Wunderground PWS Mod,2013-11-07 20:40:00,
2013-11-07 15:45:00,51.3,47.3,29.57,WSW,248,3.0,10.0,86,0.00,,,0.09,Wunderground PWS Mod,2013-11-07 20:45:00,
2013-11-07 15:50:00,49.1,43.5,29.56,WSW,256,2.0,10.0,81,0.00,,,0.10,Wunderground PWS Mod,2013-11-07 20:50:00,
2013-11-07 15:55:00,48.8,43.5,29.56,WNW,287,1.0,10.0,82,0.00,,,0.10,Wunderground PWS Mod,2013-11-07 20:55:00,
2013-11-07 16:00:00,50.8,45.8,29.58,WSW,248,5.0,12.0,83,0.00,,,0.10,Wunderground PWS Mod,2013-11-07 21:00:00,
2013-11-07 16:10:00,47.9,42.7,29.57,NW,315,3.0,11.0,82,0.00,,,0.10,Wunderground PWS Mod,2013-11-07 21:10:00,
2013-11-07 16:20:00,50.4,44.5,29.58,WSW,248,6.0,14.0,80,0.00,,,0.10,Wunderground PWS Mod,2013-11-07 21:20:00,
2013-11-07 16:25:00,47.3,41.4,29.57,West,280,3.0,11.0,80,0.00,,,0.10,Wunderground PWS Mod,2013-11-07 21:25:00,
2013-11-07 16:30:00,49.6,42.3,29.58,WSW,248,7.0,13.0,76,0.00,,,0.10,Wunderground PWS Mod,2013-11-07 21:30:00,
2013-11-07 16:35:00,46.8,41.3,29.59,West,268,3.0,12.0,81,0.00,,,0.10,Wunderground PWS Mod,2013-11-07 21:35:00,
2013-11-07 16:40:00,46.7,41.2,29.59,West,275,2.0,12.0,81,0.00,,,0.10,Wunderground PWS Mod,2013-11-07 21:40:00,
2013-11-07 16:46:00,48.9,43.3,29.56,WSW,248,1.0,8.0,81,0.01,,,0.10,Wunderground PWS Mod,2013-11-07 21:46:00,
2013-11-07 16:55:00,46.2,41.0,29.58,NW,312,1.0,8.0,82,0.00,,,0.10,Wunderground PWS Mod,2013-11-07 21:55:00,
2013-11-07 17:00:00,48.0,43.1,29.57,WSW,248,3.0,8.0,83,0.01,,,0.10,Wunderground PWS Mod,2013-11-07 22:00:00,
2013-11-07 17:10:00,47.6,42.4,29.57,WSW,248,3.0,8.0,82,0.01,,,0.10,Wunderground PWS Mod,2013-11-07 22:10:00,
2013-11-07 17:16:00,47.4,41.9,29.58,WSW,248,3.0,16.0,81,0.01,,,0.10,Wunderground PWS Mod,2013-11-07 22:16:00,
2013-11-07 17:20:00,46.1,40.6,29.58,West,271,2.0,11.0,81,0.00,,,0.10,Wunderground PWS Mod,2013-11-07 22:20:00,
2013-11-07 17:25:00,46.0,40.5,29.60,WNW,301,1.0,11.0,81,0.00,,,0.10,Wunderground PWS Mod,2013-11-07 22:25:00,
2013-11-07 17:30:00,46.8,41.3,29.59,West,270,1.0,7.0,81,0.01,,,0.10,Wunderground PWS Mod,2013-11-07 22:30:00,
2013-11-07 17:35:00,46.0,40.5,29.60,WSW,244,3.0,12.0,81,0.00,,,0.10,Wunderground PWS Mod,2013-11-07 22:35:00,
2013-11-07 17:40:00,46.0,40.5,29.60,WSW,251,3.0,12.0,81,0.00,,,0.10,Wunderground PWS Mod,2013-11-07 22:40:00,
2013-11-07 17:45:00,46.2,40.7,29.58,West,270,1.0,6.0,81,0.00,,,0.10,Wunderground PWS Mod,2013-11-07 22:45:00,
2013-11-07 17:50:00,45.8,40.3,29.60,WSW,240,3.0,7.0,81,0.00,,,0.10,Wunderground PWS Mod,2013-11-07 22:50:00,
2013-11-07 17:55:00,46.1,40.6,29.58,West,270,3.0,11.0,81,0.00,,,0.10,Wunderground PWS Mod,2013-11-07 22:55:00,
2013-11-07 18:01:00,46.1,40.6,29.58,WNW,293,2.0,6.0,81,0.00,,,0.10,Wunderground PWS Mod,2013-11-07 23:01:00,
2013-11-07 18:05:00,45.7,40.2,29.59,WNW,291,3.0,11.0,81,0.00,,,0.10,Wunderground PWS Mod,2013-11-07 23:05:00,
2013-11-07 18:10:00,46.1,40.6,29.58,NW,315,1.0,6.0,81,0.00,,,0.10,Wunderground PWS Mod,2013-11-07 23:10:00,
2013-11-07 18:15:00,46.0,40.8,29.60,West,270,2.0,11.0,82,0.00,,,0.10,Wunderground PWS Mod,2013-11-07 23:15:00,
2013-11-07 18:25:00,46.0,40.5,29.60,WSW,248,4.0,10.0,81,0.00,,,0.10,Wunderground PWS Mod,2013-11-07 23:25:00,
2013-11-07 18:30:00,46.0,40.8,29.60,WSW,248,2.0,7.0,82,0.00,,,0.10,Wunderground PWS Mod,2013-11-07 23:30:00,
2013-11-07 18:40:00,44.9,39.1,29.61,SW,223,3.0,11.0,80,0.00,,,0.10,Wunderground PWS Mod,2013-11-07 23:40:00,
2013-11-07 18:45:00,45.8,40.3,29.59,WSW,248,3.0,8.0,81,0.00,,,0.10,Wunderground PWS Mod,2013-11-07 23:45:00,
2013-11-07 18:55:00,44.6,38.8,29.61,West,275,3.0,7.0,80,0.00,,,0.10,Wunderground PWS Mod,2013-11-07 23:55:00,
2013-11-07 19:00:00,45.7,40.2,29.60,West,270,2.0,6.0,81,0.00,,,0.10,Wunderground PWS Mod,2013-11-08 00:00:00,
2013-11-07 19:01:00,44.6,38.8,29.61,West,261,4.0,12.0,80,0.00,,,0.10,Wunderground PWS Mod,2013-11-08 00:01:00,
2013-11-07 19:05:00,44.5,38.7,29.62,WNW,298,4.0,12.0,80,0.00,,,0.10,Wunderground PWS Mod,2013-11-08 00:05:00,
2013-11-07 19:10:00,44.3,38.2,29.62,SW,234,4.0,12.0,79,0.00,,,0.10,Wunderground PWS Mod,2013-11-08 00:10:00,
2013-11-07 19:16:00,45.5,39.7,29.61,WNW,293,3.0,8.0,80,0.00,,,0.10,Wunderground PWS Mod,2013-11-08 00:16:00,
2013-11-07 19:20:00,44.2,38.1,29.63,SW,229,3.0,8.0,79,0.00,,,0.10,Wunderground PWS Mod,2013-11-08 00:20:00,
2013-11-07 19:25:00,44.1,38.0,29.63,WSW,246,3.0,8.0,79,0.00,,,0.10,Wunderground PWS Mod,2013-11-08 00:25:00,
2013-11-07 19:35:00,45.1,39.3,29.61,WSW,248,3.0,8.0,80,0.00,,,0.10,Wunderground PWS Mod,2013-11-08 00:35:00,
2013-11-07 19:40:00,43.6,37.2,29.63,WSW,257,3.0,8.0,78,0.00,,,0.10,Wunderground PWS Mod,2013-11-08 00:40:00,
2013-11-07 19:45:00,44.6,38.8,29.61,WSW,248,2.0,7.0,80,0.00,,,0.10,Wunderground PWS Mod,2013-11-08 00:45:00,
2013-11-07 19:50:00,43.5,37.1,29.63,SW,224,2.0,10.0,78,0.00,,,0.10,Wunderground PWS Mod,2013-11-08 00:50:00,
2013-11-07 19:55:00,43.5,36.8,29.63,NW,306,4.0,7.0,77,0.00,,,0.10,Wunderground PWS Mod,2013-11-08 00:55:00,
2013-11-07 20:00:00,44.5,38.4,29.62,NW,315,4.0,13.0,79,0.00,,,0.10,Wunderground PWS Mod,2013-11-08 01:00:00,
2013-11-07 20:10:00,44.2,38.1,29.62,WNW,293,3.0,8.0,79,0.00,,,0.10,Wunderground PWS Mod,2013-11-08 01:10:00,
2013-11-07 20:20:00,44.1,38.0,29.63,WNW,293,3.0,13.0,79,0.00,,,0.10,Wunderground PWS Mod,2013-11-08 01:20:00,
2013-11-07 20:25:00,43.3,36.6,29.64,West,270,4.0,18.0,77,0.00,,,0.10,Wunderground PWS Mod,2013-11-08 01:25:00,
2013-11-07 20:30:00,43.8,37.4,29.63,West,270,2.0,10.0,78,0.00,,,0.10,Wunderground PWS Mod,2013-11-08 01:30:00,
2013-11-07 20:35:00,43.2,36.5,29.64,WNW,302,4.0,11.0,77,0.00,,,0.10,Wunderground PWS Mod,2013-11-08 01:35:00,
2013-11-07 20:40:00,43.2,36.8,29.64,NNW,335,4.0,11.0,78,0.00,,,0.10,Wunderground PWS Mod,2013-11-08 01:40:00,
2013-11-07 20:45:00,43.5,37.1,29.63,NW,315,3.0,12.0,78,0.00,,,0.10,Wunderground PWS Mod,2013-11-08 01:45:00,
2013-11-07 20:50:00,43.1,36.4,29.64,NW,319,4.0,12.0,77,0.00,,,0.10,Wunderground PWS Mod,2013-11-08 01:50:00,
2013-11-07 20:55:00,42.9,36.2,29.64,NW,304,4.0,12.0,77,0.00,,,0.10,Wunderground PWS Mod,2013-11-08 01:55:00,
2013-11-07 21:00:00,43.2,36.5,29.63,West,270,3.0,14.0,77,0.00,,,0.10,Wunderground PWS Mod,2013-11-08 02:00:00,
2013-11-07 21:05:00,42.5,35.8,29.65,NW,316,3.0,10.0,77,0.00,,,0.10,Wunderground PWS Mod,2013-11-08 02:05:00,
2013-11-07 21:10:00,42.3,35.6,29.65,NNW,328,3.0,10.0,77,0.00,,,0.10,Wunderground PWS Mod,2013-11-08 02:10:00,
2013-11-07 21:16:00,43.3,36.6,29.64,WNW,293,5.0,13.0,77,0.00,,,0.10,Wunderground PWS Mod,2013-11-08 02:16:00,
2013-11-07 21:20:00,42.3,34.6,29.65,NNW,342,5.0,10.0,74,0.00,,,0.10,Wunderground PWS Mod,2013-11-08 02:20:00,
2013-11-07 21:25:00,42.2,34.5,29.65,West,271,5.0,10.0,74,0.00,,,0.10,Wunderground PWS Mod,2013-11-08 02:25:00,
2013-11-07 21:30:00,43.2,36.5,29.64,NW,315,4.0,11.0,77,0.00,,,0.10,Wunderground PWS Mod,2013-11-08 02:30:00,
2013-11-07 21:40:00,41.6,34.3,29.66,WNW,288,4.0,10.0,75,0.00,,,0.10,Wunderground PWS Mod,2013-11-08 02:40:00,
2013-11-07 21:45:00,42.9,36.2,29.64,NW,315,4.0,8.0,77,0.00,,,0.10,Wunderground PWS Mod,2013-11-08 02:45:00,
2013-11-07 21:50:00,41.3,34.0,29.66,NW,306,4.0,10.0,75,0.00,,,0.10,Wunderground PWS Mod,2013-11-08 02:50:00,
2013-11-07 21:55:00,42.8,36.1,29.64,SW,225,3.0,10.0,77,0.00,,,0.10,Wunderground PWS Mod,2013-11-08 02:55:00,
2013-11-07 22:00:00,42.5,35.8,29.65,NW,315,4.0,10.0,77,0.00,,,0.10,Wunderground PWS Mod,2013-11-08 03:00:00,
2013-11-07 22:05:00,40.8,34.1,29.66,West,270,3.0,7.0,77,0.00,,,0.10,Wunderground PWS Mod,2013-11-08 03:05:00,
2013-11-07 22:15:00,42.2,34.5,29.65,NW,315,5.0,14.0,74,0.00,,,0.10,Wunderground PWS Mod,2013-11-08 03:15:00,
2013-11-07 22:20:00,40.3,33.7,29.66,NW,316,2.0,8.0,77,0.00,,,0.10,Wunderground PWS Mod,2013-11-08 03:20:00,
2013-11-07 22:25:00,40.2,33.6,29.66,NW,318,2.0,8.0,77,0.00,,,0.10,Wunderground PWS Mod,2013-11-08 03:25:00,
2013-11-07 22:30:00,41.8,34.5,29.66,NW,315,5.0,13.0,75,0.00,,,0.10,Wunderground PWS Mod,2013-11-08 03:30:00,
2013-11-07 22:35:00,40.1,32.8,29.66,West,274,2.0,7.0,75,0.00,,,0.10,Wunderground PWS Mod,2013-11-08 03:35:00,
2013-11-07 22:40:00,41.3,34.3,29.66,NW,315,3.0,12.0,76,0.00,,,0.10,Wunderground PWS Mod,2013-11-08 03:40:00,
2013-11-07 22:46:00,41.3,34.0,29.66,West,270,4.0,13.0,75,0.00,,,0.10,Wunderground PWS Mod,2013-11-08 03:46:00,
2013-11-07 22:50:00,40.1,31.8,29.66,WNW,298,2.0,7.0,72,0.00,,,0.10,Wunderground PWS Mod,2013-11-08 03:50:00,
2013-11-07 22:55:00,40.9,34.2,29.66,WNW,293,2.0,7.0,77,0.00,,,0.10,Wunderground PWS Mod,2013-11-08 03:55:00,
2013-11-07 23:00:00,40.8,34.1,29.66,WSW,248,3.0,10.0,77,0.00,,,0.10,Wunderground PWS Mod,2013-11-08 04:00:00,
2013-11-07 23:10:00,39.3,32.0,29.66,West,271,0.0,7.0,75,0.00,,,0.00,Wunderground PWS Mod,2013-11-08 04:10:00,
2013-11-07 23:15:00,40.3,33.7,29.66,NW,315,1.0,6.0,77,0.00,,,0.10,Wunderground PWS Mod,2013-11-08 04:15:00,
2013-11-07 23:20:00,39.1,31.8,29.67,WNW,292,0.0,2.0,75,0.00,,,0.00,Wunderground PWS Mod,2013-11-08 04:20:00,
2013-11-07 23:25:00,38.9,31.6,29.67,WNW,294,0.0,2.0,75,0.00,,,0.00,Wunderground PWS Mod,2013-11-08 04:25:00,
2013-11-07 23:31:00,40.1,32.8,29.66,NW,315,2.0,6.0,75,0.00,,,0.10,Wunderground PWS Mod,2013-11-08 04:31:00,
2013-11-07 23:35:00,38.6,31.4,29.67,WNW,294,0.0,3.0,75,0.00,,,0.00,Wunderground PWS Mod,2013-11-08 04:35:00,
2013-11-07 23:40:00,38.5,31.3,29.67,NW,308,0.0,3.0,75,0.00,,,0.00,Wunderground PWS Mod,2013-11-08 04:40:00,
2013-11-07 23:45:00,39.9,31.9,29.66,WNW,293,1.0,6.0,73,0.00,,,0.10,Wunderground PWS Mod,2013-11-08 04:45:00,
2013-11-07 23:50:00,38.3,31.1,29.67,West,267,1.0,5.0,75,0.00,,,0.00,Wunderground PWS Mod,2013-11-08 04:50:00,
2013-11-07 23:55:00,38.3,31.1,29.67,West,267,1.0,5.0,75,0.00,,,0.00,Wunderground PWS Mod,2013-11-08 04:55:00,